Rogers City, MI

10:06 PM EDT on June 24, 2017 (GMT -0400)
Presque Isle County

Weather History for KPZQ - October, 2013

Change the Weather History Date:

Wednesday, October 16, 2013

  Actual Average (KAPN) Record (KAPN)
Temperature  
Mean Temperature 53 °F -  
Max Temperature 58 °F 54 °F 82 °F (1968)
Min Temperature 48 °F 36 °F 20 °F (1940)
Degree Days  
Heating Degree Days 12    
Growing Degree Days 3 (Base 50)    
Moisture  
Dew Point 50 °F    
Average Humidity 88    
Maximum Humidity 96    
Minimum Humidity 77    
Precipitation  
Precipitation 0.00 in - - ()
Sea Level Pressure  
Sea Level Pressure 29.72 in    
Wind  
Wind Speed 9 mph (SW)    
Max Wind Speed 16 mph    
Max Gust Speed 23 mph    
Visibility 9 miles    
Events Rain    
Averages and records for this station are not official NWS values.
T = Trace of Precipitation, MM = Missing Value Source: NWS Daily Summary

Daily Weather History Graph

Daily Weather History Graph

Search for Another Location

Airport or City:

Trip Planner

Search our weather history database for the weather conditions in past years. The results will help you decide how hot, cold, wet, or windy it might be!

Date:

Astronomy

Oct. 16, 2013 Rise Set
Actual Time 7:53 AM EDT 6:47 PM EDT
Civil Twilight 7:23 AM EDT 7:17 PM EDT
Nautical Twilight 6:48 AM EDT 7:51 PM EDT
Astronomical Twilight 6:14 AM EDT 8:25 PM EDT
Moon 5:31 PM EDT (10/16) 5:13 AM EDT (10/16)
Length of Visible Light 11h 54m
Length of Day
10h 54m
Waxing Gibbous, 94% of the Moon is Illuminated
Oct 16
Waxing Gibbous
Oct 18
Full
Oct 26
Last Quarter
Nov 3
New
Nov 10
First Quarter

Hourly Weather History & Observations

Time (EDT) Temp. Dew Point Humidity Pressure Visibility Wind Dir Wind Speed Gust Speed Precip Events Conditions
12:14 AM 58.3 °F 56.3 °F 93% 29.74 in 7.0 mi South 6.9 mph - N/A   Overcast
12:35 AM 58.5 °F 56.5 °F 93% 29.73 in 7.0 mi South 9.2 mph - N/A   Overcast
12:55 AM 58.3 °F 56.3 °F 93% 29.72 in 7.0 mi South 10.4 mph 17.3 mph N/A   Overcast
1:15 AM 58.1 °F 56.3 °F 94% 29.72 in 7.0 mi South 8.1 mph - N/A   Mostly Cloudy
1:35 AM 58.1 °F 56.3 °F 94% 29.72 in 7.0 mi South 8.1 mph - N/A   Mostly Cloudy
1:55 AM 57.4 °F 55.8 °F 94% 29.71 in 7.0 mi South 6.9 mph - N/A   Scattered Clouds
2:15 AM 56.7 °F 55.0 °F 94% 29.72 in 7.0 mi SSW 8.1 mph - N/A   Clear
2:35 AM 56.5 °F 55.0 °F 95% 29.72 in 7.0 mi South 9.2 mph - N/A   Clear
2:54 AM 56.5 °F 55.0 °F 95% 29.72 in 7.0 mi South 5.8 mph - N/A   Clear
3:15 AM 55.8 °F 54.5 °F 96% 29.71 in 7.0 mi South 3.5 mph - N/A   Scattered Clouds
3:35 AM 55.6 °F 54.1 °F 95% 29.71 in 5.0 mi South 5.8 mph - N/A   Clear
3:54 AM 55.8 °F 54.5 °F 96% 29.69 in 5.0 mi South 4.6 mph - N/A   Clear
4:15 AM 55.6 °F 54.3 °F 96% 29.69 in 7.0 mi South 6.9 mph - N/A   Clear
4:35 AM 56.3 °F 54.9 °F 95% 29.69 in 7.0 mi South 5.8 mph - N/A   Mostly Cloudy
4:55 AM 56.5 °F 55.0 °F 95% 29.68 in 7.0 mi South 6.9 mph - N/A   Scattered Clouds
5:14 AM 56.1 °F 54.7 °F 95% 29.68 in 7.0 mi South 8.1 mph - N/A   Scattered Clouds
5:35 AM 56.5 °F 55.0 °F 95% 29.68 in 7.0 mi SW 4.6 mph - N/A   Mostly Cloudy
5:55 AM 55.9 °F 53.8 °F 92% 29.68 in 10.0 mi SW 6.9 mph - N/A   Mostly Cloudy
6:14 AM 54.7 °F 52.0 °F 91% 29.69 in 10.0 mi SW 6.9 mph - N/A   Mostly Cloudy
6:35 AM 54.5 °F 50.9 °F 88% 29.68 in 10.0 mi SW 8.1 mph 16.1 mph N/A   Mostly Cloudy
6:55 AM 52.7 °F 48.7 °F 86% 29.68 in 10.0 mi SSW 8.1 mph 16.1 mph N/A   Scattered Clouds
7:14 AM 51.8 °F 46.6 °F 82% 29.68 in 10.0 mi SSW 8.1 mph - N/A   Clear
7:35 AM 51.8 °F 46.8 °F 83% 29.68 in 10.0 mi SSW 8.1 mph - N/A   Mostly Cloudy
7:55 AM 51.6 °F 46.8 °F 83% 29.68 in 10.0 mi SSW 8.1 mph - N/A   Overcast
8:15 AM 51.3 °F 47.3 °F 86% 29.68 in 10.0 mi SSW 8.1 mph - N/A   Scattered Clouds
8:35 AM 51.8 °F 47.7 °F 86% 29.68 in 10.0 mi SW 9.2 mph - N/A   Mostly Cloudy
8:54 AM 52.2 °F 47.8 °F 85% 29.67 in 10.0 mi SSW 13.8 mph 19.6 mph N/A   Overcast
9:15 AM 52.3 °F 47.8 °F 85% 29.68 in 10.0 mi SSW 13.8 mph 20.7 mph N/A   Overcast
9:35 AM 52.2 °F 48.0 °F 86% 29.68 in 10.0 mi SSW 12.7 mph 18.4 mph N/A   Overcast
9:55 AM 52.3 °F 48.4 °F 86% 29.68 in 10.0 mi SSW 8.1 mph - N/A   Overcast
10:15 AM 52.7 °F 48.7 °F 86% 29.68 in 10.0 mi SW 8.1 mph - N/A   Overcast
10:34 AM 52.9 °F 48.6 °F 85% 29.69 in 10.0 mi SSW 10.4 mph 17.3 mph N/A   Overcast
10:55 AM 53.2 °F 48.7 °F 85% 29.69 in 10.0 mi SW 13.8 mph 18.4 mph N/A   Overcast
11:15 AM 53.8 °F 48.9 °F 84% 29.68 in 10.0 mi SW 13.8 mph 17.3 mph N/A   Overcast
11:34 AM 54.5 °F 49.1 °F 82% 29.68 in 10.0 mi SW 11.5 mph 18.4 mph N/A   Overcast
11:55 AM 54.9 °F 48.7 °F 80% 29.68 in 10.0 mi SW 11.5 mph 21.9 mph N/A   Overcast
12:15 PM 55.9 °F 49.1 °F 78% 29.68 in 10.0 mi SSW 16.1 mph 23.0 mph N/A   Overcast
12:35 PM 55.6 °F 48.4 °F 77% 29.68 in 10.0 mi SW 15.0 mph 19.6 mph N/A   Overcast
12:55 PM 55.0 °F 48.2 °F 78% 29.68 in 10.0 mi SW 13.8 mph 20.7 mph N/A   Overcast
1:14 PM 55.2 °F 48.4 °F 78% 29.68 in 10.0 mi SW 13.8 mph 20.7 mph N/A   Overcast
1:35 PM 55.6 °F 48.9 °F 78% 29.68 in 10.0 mi SW 15.0 mph 21.9 mph N/A   Overcast
1:55 PM 54.3 °F 50.0 °F 85% 29.67 in 5.0 mi SSW 11.5 mph 17.3 mph N/A Rain Light Rain
2:14 PM 54.9 °F 50.4 °F 85% 29.67 in 10.0 mi SW 15.0 mph 18.4 mph N/A   Overcast
2:35 PM 55.0 °F 49.5 °F 81% 29.67 in 10.0 mi SW 10.4 mph 19.6 mph N/A   Overcast
2:55 PM 55.4 °F 49.5 °F 80% 29.68 in 10.0 mi SW 12.7 mph - N/A   Overcast
3:14 PM 54.7 °F 49.6 °F 83% 29.68 in 4.0 mi WSW 13.8 mph 23.0 mph N/A   Haze
3:35 PM 53.2 °F 50.5 °F 91% 29.69 in 1.8 mi West 10.4 mph 17.3 mph N/A   Drizzle
3:55 PM 53.4 °F 51.1 °F 92% 29.70 in 5.0 mi West 6.9 mph - N/A   Light Drizzle
4:15 PM 53.6 °F 50.9 °F 91% 29.70 in 10.0 mi West 10.4 mph - N/A   Overcast
4:35 PM 53.2 °F 50.4 °F 90% 29.71 in 10.0 mi WNW 6.9 mph - N/A   Overcast
4:54 PM 53.1 °F 50.2 °F 90% 29.71 in 7.0 mi West 6.9 mph - N/A   Overcast
5:15 PM 52.7 °F 49.8 °F 90% 29.72 in 10.0 mi West 11.5 mph 16.1 mph N/A   Overcast
5:35 PM 52.7 °F 49.1 °F 88% 29.73 in 10.0 mi West 8.1 mph 16.1 mph N/A   Overcast
5:54 PM 52.3 °F 48.7 °F 88% 29.73 in 10.0 mi West 8.1 mph 16.1 mph N/A   Overcast
6:15 PM 52.2 °F 48.4 °F 87% 29.74 in 10.0 mi West 6.9 mph - N/A   Overcast
6:35 PM 52.0 °F 48.0 °F 86% 29.75 in 10.0 mi West 9.2 mph - N/A   Overcast
6:55 PM 52.0 °F 47.5 °F 85% 29.76 in 10.0 mi West 9.2 mph - N/A   Overcast
7:15 PM 51.8 °F 47.1 °F 84% 29.76 in 10.0 mi West 9.2 mph - N/A   Overcast
7:34 PM 51.8 °F 46.8 °F 83% 29.77 in 10.0 mi West 8.1 mph - N/A   Overcast
7:55 PM 51.8 °F 46.4 °F 82% 29.78 in 10.0 mi West 5.8 mph - N/A   Overcast
8:15 PM 51.4 °F 46.4 °F 83% 29.78 in 10.0 mi West 10.4 mph - N/A   Overcast
8:33 PM 51.1 °F 46.2 °F 83% 29.79 in 10.0 mi West 8.1 mph 18.4 mph N/A   Overcast
8:55 PM 50.5 °F 46.4 °F 86% 29.79 in 10.0 mi West 9.2 mph - N/A   Overcast
9:35 PM 50.0 °F 46.4 °F 87% 29.80 in 7.0 mi West 4.6 mph - N/A   Overcast
9:55 PM 50.0 °F 46.6 °F 88% 29.81 in 10.0 mi West 8.1 mph - N/A   Overcast
10:14 PM 49.6 °F 46.4 °F 89% 29.81 in 10.0 mi West 6.9 mph - N/A   Overcast
10:35 PM 49.5 °F 46.4 °F 89% 29.82 in 7.0 mi West 10.4 mph 16.1 mph N/A   Overcast
10:55 PM 49.1 °F 46.4 °F 90% 29.82 in 5.0 mi West 6.9 mph - N/A Rain Light Rain
11:14 PM 48.9 °F 46.4 °F 91% 29.82 in 7.0 mi West 10.4 mph - N/A Rain Light Rain
11:35 PM 48.7 °F 46.0 °F 90% 29.82 in 10.0 mi WNW 8.1 mph - N/A   Overcast
11:55 PM 48.6 °F 45.9 °F 90% 29.82 in 10.0 mi West 6.9 mph - N/A   Overcast